• Processing (Info)

  • MPEC 2016-R62 : 2016 RT1

    The following Minor Planet Electronic Circular may be linked-to from your own Web pages, but must not otherwise be redistributed electronically.

    A form allowing access to any MPEC is at the bottom of this page.


    Read MPEC 2016-R61 Read MPEC 2016-R63


    M.P.E.C. 2016-R62                                Issued 2016 Sept. 6, 15:29 UT
    
         The Minor Planet Electronic Circulars contain information on unusual
             minor planets and routine data on comets.  They are published
        on behalf of Division F of the International Astronomical Union by the
              Minor Planet Center, Smithsonian Astrophysical Observatory,
                              Cambridge, MA 02138, U.S.A.
    
                 Prepared using the Tamkin Foundation Computer Network
    
                                  MPC@CFA.HARVARD.EDU
                URL https://www.minorplanetcenter.net/    ISSN 1523-6714
    
                                       2016 RT1
    
    Observations:
         K16R01T* C2016 09 04.43788 02 37 20.23 +31 29 19.8          17.4 VqER062G96
         K16R01T  C2016 09 04.44019 02 37 18.87 +31 30 16.0                qER062G96
         K16R01T  C2016 09 04.44250 02 37 17.51 +31 31 11.3          18.0 VqER062G96
         K16R01T  C2016 09 04.44483 02 37 16.11 +31 32 06.5          18.0 VqER062G96
         K16R01T  C2016 09 04.48032 02 36 54.87 +31 46 11.9          18.1 VqER062G96
         K16R01T  C2016 09 04.48217 02 36 53.74 +31 46 56.0          18.3 VqER062G96
         K16R01T  C2016 09 04.48402 02 36 52.64 +31 47 40.1          18.3 VqER062G96
         K16R01T HC2016 09 04.49031 02 36 48.92 +31 50 11.5          18.9 VoER062691
         K16R01T  C2016 09 04.49712 02 36 44.75 +31 52 51.1          18.6 VqER062703
         K16R01T HC2016 09 04.49749 02 36 44.66 +31 53 01.6          19.0 VoER062691
         K16R01T  C2016 09 04.49750 02 36 44.51 +31 53 00.7          18.5 VqER062703
         K16R01T  C2016 09 04.49789 02 36 44.34 +31 53 09.6          18.5 VqER062703
         K16R01T  C2016 09 04.49828 02 36 44.05 +31 53 19.0          18.4 VqER062703
         K16R01T HC2016 09 04.50455 02 36 40.45 +31 55 49.3          19.8 VoER062691
         K16R01T  C2016 09 05.33618002 28 25.31 +37 29 17.9          17.7 VuER062H21
         K16R01T  C2016 09 05.33833702 28 23.82 +37 30 10.4          18.0 VuER062H21
         K16R01T  C2016 09 05.34264802 28 20.79 +37 31 55.2          17.7 VuER062H21
         K16R01T  C2016 09 05.34480202 28 19.29 +37 32 47.4          17.8 VuER062H21
         K16R01T  C2016 09 05.34724102 28 17.57 +37 33 46.7          17.8 VuER062H21
         K16R01T  C2016 09 05.34939002 28 16.05 +37 34 38.9          17.7 VuER062H21
         K16R01T  C2016 09 05.35154502 28 14.54 +37 35 31.4          17.6 VuER062H21
         K16R01T  C2016 09 05.35412802 28 12.74 +37 36 34.1          17.7 VuER062H21
         K16R01T KC2016 09 05.85576 02 22 32.62 +40 57 52.9                tER062595
         K16R01T KC2016 09 05.85837 02 22 30.70 +40 58 56.7                tER062595
         K16R01T KC2016 09 05.86453 02 22 26.26 +41 01 27.9          18.9 VtER062595
         K16R01T KC2016 09 05.88712 02 22 09.75 +41 10 36.4          17.6 RqER062587
         K16R01T KC2016 09 05.88832 02 22 08.78 +41 11 07.0                qER062587
         K16R01T KC2016 09 05.89194 02 22 06.12 +41 12 34.6          18.0 RqER062587
         K16R01T  C2016 09 06.35334 02 16 09.27 +44 18 28.8          18.7 VqER062G96
         K16R01T  C2016 09 06.36067 02 16 02.96 +44 21 25.8          18.7 VqER062G96
         K16R01T  C2016 09 06.36804 02 15 56.61 +44 24 23.7          18.7 VqER062G96
         K16R01T  C2016 09 06.37537 02 15 50.26 +44 27 19.7          18.7 VqER062G96
    
    Observer details:
    587 Sormano.  Observers A. Fumagalli, F. Manca, I. Proserpio, P. Sicoli,
        A. Testa.  Measurer P. Sicoli.  0.5-m f/6.8 reflector + CCD.
    595 Farra d'Isonzo.  Observer E. Pettarin.  0.61-m f/4.0 reflector + CCD.
    691 Steward Observatory, Kitt Peak.  Observer T. H. Bressi.  0.9-m f/3
        reflector + CCD.
    703 Catalina Sky Survey.  Observer G. J. Leonard.  Measurers E. J. Christensen,
        D. C. Fuls, A. R. Gibbs, A. D. Grauer, J. A. Johnson, R. A. Kowalski,
        S. M. Larson, G. J. Leonard, R. G. Matheny, R. L. Seaman, F. C. Shelly.
        0.68-m Schmidt + CCD.
    G96 Mt. Lemmon Survey.  Observers R. G. Matheny, D. C. Fuls.  Measurers
        E. J. Christensen, D. C. Fuls, A. R. Gibbs, A. D. Grauer, J. A. Johnson,
        R. A. Kowalski, S. M. Larson, G. J. Leonard, R. G. Matheny, R. L. Seaman,
        F. C. Shelly.  1.5-m reflector + 10K CCD.
    H21 Astronomical Research Observatory, Westfield.  Observer R. Holmes.
        Measurers S. Foglia, L. Buzzi, T. Linder, R. Holmes.  0.61-m f/4.5
        astrograph + CCD.
    
    Orbital elements:
    2016 RT1                                            PHA, Earth MOID = 0.0352 AU
    Epoch 2016 July 31.0 TT = JDT 2457600.5                 MPC
    M 188.09370              (2000.0)            P               Q
    n   1.04743369     Peri.  145.12136     -0.65063032     -0.74608248
    a   0.9602516      Node   343.82067     +0.52816205     -0.31063629
    e   0.1113840      Incl.   30.53432     +0.54564185     -0.58895333
    P   0.94           H   21.6           G   0.15           U   8
    Residuals in seconds of arc
    160904 G96  0.3-  1.2-    160904 703  0.6+  0.1-    160905 595  0.2+  0.1+
    160904 G96  0.1-  0.1-    160904 703  0.1-  0.0     160905 595  0.1-  0.1-
    160904 G96  0.1+  0.1+    160904 691  0.8+  0.2+    160905 595  0.5+  0.2+
    160904 G96  0.0   0.2-    160905 H21  0.1+  0.3+    160905 587  0.4+  0.7-
    160904 G96  0.1+  0.0     160905 H21  0.3+  0.3+    160905 587  0.6-  0.5+
    160904 G96  0.1-  0.1+    160905 H21  0.1+  0.3+    160905 587  0.4-  0.6-
    160904 G96  0.0   0.2+    160905 H21  0.2+  0.1+    160906 G96  0.2+  0.1-
    160904 691  0.5-  0.9+    160905 H21  0.1+  0.0     160906 G96  0.1+  0.1+
    160904 703  0.1-  0.3-    160905 H21  0.0   0.0     160906 G96  0.1+  0.5+
    160904 691  0.2+  0.3+    160905 H21  0.0   0.1+    160906 G96  0.0   0.0
    160904 703  0.2-  0.2+    160905 H21  0.2+  0.0
    
    Ephemeris:
    2016 RT1                 a,e,i = 0.96, 0.11, 31                  q = 0.8533
    Date    TT    R. A. (2000) Decl.     Delta      r     Elong.  Phase     V
    2016 08 07    03 35 50.6 -32 36 03   0.2697  1.0641    93.2    72.1    21.4
    ...
    2016 08 22    03 27 24.5 -18 53 12   0.1511  1.0546   102.5    69.4    20.0
    ...
    2016 08 30    03 09 17.3 +01 58 20   0.09522 1.0470   110.6    64.5    18.9
    ...
    2016 09 05    02 31 55.1 +35 13 39   0.07318 1.0403   114.1    62.2    18.2
    2016 09 06    02 20 39.4 +41 56 37   0.07280 1.0391   113.4    62.9    18.2
    2016 09 07    02 06 44.1 +48 31 58   0.07352 1.0378   112.3    64.0    18.3
    ...
    2016 09 13    22 45 42.4 +74 24 14   0.09683 1.0299   101.6    73.1    19.2
    ...
    2016 09 21    18 12 53.0 +69 27 27   0.1523  1.0182    91.0    80.4    20.4
    ...
    2016 10 06    17 00 22.0 +58 28 41   0.2668  0.9929    80.9    83.8    21.6
    
    A. U. Tomatic                (C) Copyright 2016 MPC           M.P.E.C. 2016-R62
    

    Read MPEC 2016-R61 Read MPEC 2016-R63


    MPEC number:

    Enter an MPEC number in one of the following forms:

    • 1997-B01 (the full form)
    • J97B01 (the packed version of the full form)
    • B01 (the abbreviated form)